Location: Lugano
(46.0000°N, 8.9670°E)
Time: 17:01:25
(UTC+02:00)

Envisat - Pass Details

Date: 15 March 2026
Orbit: 761 x 762 km, 98.4° (Epoch: 19 April)

Event Time Altitude Azimuth Distance (km) Brightness Sun altitude
Rises 03:43:38 0° 8° (N) 3,236 6.8 -29.7°
Reaches altitude 10° 03:46:01 10° 3° (N) 2,305 5.8 -29.3°
Enters shadow 03:48:57 32° 343° (NNW) 1,298 4.2 -28.9°
